Location: Bailen
(14.1842°N, 120.7958°E)
Time: 18:43:22
(UTC+00:00)

Meteor 1-21 - Pass Details

Date: 12 January 2026
Orbit: 845 x 885 km, 81.2° (Epoch: 17 February)

Event Time Altitude Azimuth Distance (km) Brightness Sun altitude
Rises 21:50:01 0° 348° (NNW) 3,420 7.0 -8.6°
Reaches altitude 10° 21:52:27 10° 345° (NNW) 2,489 6.3 -8.1°
Maximum altitude 21:58:00 61° 266° (W) 972 4.3 -6.8°
Drops below altitude 10° 22:03:38 10° 186° (S) 2,514 6.9 -5.5°
Sets 22:06:06 0° 183° (S) 3,456 7.6 -5.0°
